Voltar ao catálogo

ARIANE 3 DEB

AtivoGTO
NORAD 26807·DEBRIS·🇫🇷 France

Lançado Sep 8, 1988 de Guiana Space Centre

Loading…

TLE

ObsoletoSource: Space-Track

Época: Sep 11, 2026, 11:35 UTC

1 26807U 88081H   26254.48306980 -.00000171  00000-0  00000-0 0  9995
2 26807   6.3772 300.3399 7042398 104.1744   3.8217  2.17349061214484

Acompanhe ARIANE 3 DEB em tempo real com AllMySat

Download on the App Store